Waukesha, WI

8:23 PM CDT on May 27, 2017 (GMT -0500)
Waukesha County

Weather History for KUES - November, 2011

Change the Weather History Date:

Wednesday, November 9, 2011

  Actual Average Record
Temperature  
Mean Temperature 37 °F -  
Max Temperature 42 °F 48 °F 73 °F (1999)
Min Temperature 32 °F 32 °F 8 °F (1991)
Degree Days  
Heating Degree Days 28    
Moisture  
Dew Point 35 °F    
Average Humidity 94    
Maximum Humidity 100    
Minimum Humidity 81    
Precipitation  
Precipitation 0.08 in - - ()
Sea Level Pressure  
Sea Level Pressure 29.80 in    
Wind  
Wind Speed 14 mph (NNW)    
Max Wind Speed 24 mph    
Max Gust Speed 34 mph    
Visibility 8 miles    
Events Rain , Snow    
Averages and records for this station are not official NWS values.
T = Trace of Precipitation, MM = Missing Value Source: NWS Daily Summary

Daily Weather History Graph

Daily Weather History Graph

Search for Another Location

Airport or City:

Trip Planner

Search our weather history database for the weather conditions in past years. The results will help you decide how hot, cold, wet, or windy it might be!

Date:

Astronomy

Nov. 09, 2011 Rise Set
Actual Time 6:37 AM CST 4:35 PM CST
Civil Twilight 6:07 AM CST 5:05 PM CST
Nautical Twilight 5:33 AM CST 5:39 PM CST
Astronomical Twilight 5:00 AM CST 6:12 PM CST
Moon 3:46 PM CST (11/9) 5:32 AM CST (11/9)
Length of Visible Light 10h 58m
Length of Day
9h 58m
Waxing Gibbous, 99% of the Moon is Illuminated
Nov 9
Waxing Gibbous
Nov 10
Full
Nov 18
Last Quarter
Nov 25
New
Dec 2
First Quarter

Hourly Weather History & Observations

Time (CST) Temp. Windchill Dew Point Humidity Pressure Visibility Wind Dir Wind Speed Gust Speed Precip Events Conditions
12:15 AM 41.0 °F 33.5 °F 39.2 °F 93% 29.92 in 10.0 mi NNE 13.8 mph 19.6 mph N/A   Overcast
12:35 AM 41.0 °F 33.9 °F 39.2 °F 93% 29.91 in 10.0 mi NNE 12.7 mph 23.0 mph N/A Rain Light Rain
12:55 AM 41.0 °F 33.5 °F 41.0 °F 100% 29.90 in 10.0 mi NE 13.8 mph 21.9 mph N/A   Light Drizzle
1:15 AM 41.0 °F 33.9 °F 39.2 °F 93% 29.90 in 10.0 mi NNE 12.7 mph 20.7 mph N/A Rain Light Rain
1:35 AM 41.0 °F 33.1 °F 41.0 °F 100% 29.89 in 10.0 mi NE 15.0 mph 19.6 mph N/A   Drizzle
1:55 AM 41.0 °F 33.9 °F 39.2 °F 93% 29.88 in 7.0 mi NE 12.7 mph 20.7 mph N/A Rain Light Rain
2:15 AM 41.0 °F 33.1 °F 41.0 °F 100% 29.87 in 10.0 mi NE 15.0 mph 21.9 mph 0.01 in Rain Light Rain
2:35 AM 41.0 °F 32.5 °F 41.0 °F 100% 29.86 in 7.0 mi NE 17.3 mph 24.2 mph 0.01 in Rain Rain
2:55 AM 41.0 °F 34.7 °F 41.0 °F 100% 29.85 in 7.0 mi NE 10.4 mph 18.4 mph 0.03 in Rain Light Rain
3:15 AM 41.0 °F 33.1 °F 41.0 °F 100% 29.83 in 10.0 mi NE 15.0 mph 24.2 mph N/A Rain Rain
3:35 AM 41.0 °F 33.5 °F 41.0 °F 100% 29.83 in 7.0 mi NE 13.8 mph 23.0 mph 0.02 in Rain Light Rain
3:55 AM 41.0 °F 33.1 °F 41.0 °F 100% 29.81 in 7.0 mi NE 15.0 mph 23.0 mph 0.04 in Rain Rain
4:15 AM 41.0 °F 34.3 °F 41.0 °F 100% 29.80 in 7.0 mi NE 11.5 mph 18.4 mph 0.01 in Rain Light Rain
4:35 AM 41.0 °F 33.9 °F 41.0 °F 100% 29.78 in 7.0 mi NE 12.7 mph 27.6 mph 0.01 in   Light Drizzle
5:45 AM 41.0 °F 33.5 °F 39.2 °F 93% 29.71 in 10.0 mi NE 13.8 mph - N/A Rain Light Rain
6:45 AM 41.0 °F 33.5 °F 39.2 °F 93% 29.66 in 4.0 mi NE 13.8 mph - N/A Rain Rain
7:45 AM 41.0 °F 31.6 °F 41.0 °F 100% 29.62 in 4.0 mi NE 20.7 mph - N/A Rain Light Rain
8:45 AM 42.8 °F 35.4 °F 41.0 °F 93% 29.58 in 4.0 mi NE 15.0 mph - N/A Rain Light Rain
9:45 AM 41.0 °F 34.7 °F 39.2 °F 93% 29.56 in 4.0 mi North 10.4 mph - N/A Rain Rain
10:45 AM 41.0 °F 32.8 °F 39.2 °F 93% 29.53 in 5.0 mi NNW 16.1 mph - N/A Rain Light Rain
12:45 PM 35.6 °F 25.2 °F 33.8 °F 93% 29.54 in 10.0 mi NW 18.4 mph - N/A   Overcast
1:20 PM 32.0 °F 21.2 °F 30.2 °F 93% 29.58 in 1.2 mi WNW 16.1 mph - N/A Rain Light Rain
1:45 PM 32.0 °F 19.8 °F 30.2 °F 93% 29.60 in 1.5 mi WNW 20.7 mph - N/A Snow Light Snow
2:45 PM 33.8 °F 21.3 °F 32.0 °F 93% 29.63 in 2.5 mi NW 24.2 mph - N/A Snow Snow
3:45 PM 33.8 °F 21.6 °F 32.0 °F 93% 29.65 in 4.0 mi WNW 23.0 mph 34.5 mph N/A Rain , Snow Light Rain
4:45 PM 33.8 °F 21.6 °F 32.0 °F 93% 29.75 in 7.0 mi WNW 23.0 mph 34.5 mph N/A   Overcast
5:45 PM 33.8 °F 23.2 °F 32.0 °F 93% 29.83 in 10.0 mi WNW 17.3 mph 28.8 mph N/A   Overcast
6:45 PM 33.8 °F 23.2 °F 32.0 °F 93% 29.87 in 10.0 mi West 17.3 mph 28.8 mph N/A   Overcast
8:15 PM 33.8 °F 25.3 °F 30.2 °F 87% 29.89 in 10.0 mi West 11.5 mph - N/A   Scattered Clouds
8:35 PM 33.8 °F 26.4 °F 30.2 °F 87% 29.90 in 10.0 mi West 9.2 mph - N/A   Clear
8:45 PM 33.8 °F 25.3 °F 28.4 °F 81% 29.90 in 10.0 mi West 11.5 mph - N/A   Clear
8:55 PM 32.0 °F 24.2 °F 30.2 °F 93% 29.90 in 10.0 mi West 9.2 mph - N/A   Clear
9:15 PM 32.0 °F 25.6 °F 30.2 °F 93% 29.90 in 10.0 mi WSW 6.9 mph - N/A   Clear
9:35 PM 32.0 °F 26.4 °F 30.2 °F 93% 29.90 in 10.0 mi WSW 5.8 mph - N/A   Clear
9:55 PM 32.0 °F 24.8 °F 30.2 °F 93% 29.90 in 10.0 mi WSW 8.1 mph - N/A   Clear
10:15 PM 32.0 °F 24.2 °F 30.2 °F 93% 29.90 in 10.0 mi WSW 9.2 mph - N/A   Clear
10:35 PM 32.0 °F 24.2 °F 30.2 °F 93% 29.90 in 10.0 mi WSW 9.2 mph - N/A   Clear
10:55 PM 32.0 °F 23.6 °F 30.2 °F 93% 29.90 in 10.0 mi WSW 10.4 mph - N/A   Clear
11:15 PM 32.0 °F 22.5 °F 28.4 °F 87% 29.90 in 10.0 mi WSW 12.7 mph - N/A   Clear
11:35 PM 32.0 °F 23.0 °F 28.4 °F 87% 29.90 in 10.0 mi WSW 11.5 mph - N/A   Clear
11:55 PM 32.0 °F 23.0 °F 28.4 °F 87% 29.90 in 10.0 mi WSW 11.5 mph - N/A   Clear